QPF
0.00 0.01 0.00 0.01 0.01 0.00 0.00 0.00 0.00 0.00 0.00 0.00 0.00 0.00 0.00 0.00 0.00 0.01 0.02 0.03 0.02 0.01 0.01 0.01 0.02 0.02 0.03 0.03 0.04 0.04 0.04 0.04 0.04 0.03 0.02 0.01 0.01 0.01 0.01 0.01 0.01 0.01 0.01 0.01 0.01 0.01 0.01 0.00 0.00
0.01 0.01 0.01 0.02 0.02 0.01 0.00 0.00 0.00 0.00 0.00 0.01 0.00 0.00 0.00 0.00 0.01 0.02 0.02 0.03 0.02 0.02 0.01 0.01 0.02 0.02 0.02 0.02 0.03 0.05 0.05 0.05 0.04 0.04 0.02 0.01 0.01 0.01 0.01 0.02 0.02 0.02 0.01 0.01 0.01 0.01 0.01 0.00 0.00
0.01 0.02 0.02 0.03 0.02 0.01 0.01 0.01 0.00 0.00 0.00 0.01 0.00 0.00 0.00 0.01 0.01 0.02 0.02 0.02 0.02 0.02 0.01 0.02 0.02 0.02 0.02 0.02 0.02 0.03 0.05 0.04 0.03 0.04 0.02 0.01 0.01 0.01 0.02 0.02 0.01 0.01 0.01 0.01 0.01 0.01 0.01 0.01 0.01
0.01 0.02 0.03 0.03 0.02 0.01 0.01 0.01 0.01 0.00 0.01 0.00 0.00 0.00 0.01 0.01 0.01 0.01 0.01 0.01 0.01 0.01 0.01 0.01 0.02 0.02 0.02 0.02 0.02 0.02 0.03 0.04 0.04 0.04 0.03 0.02 0.02 0.02 0.02 0.02 0.01 0.01 0.02 0.02 0.01 0.01 0.01 0.01 0.01
0.02 0.03 0.04 0.03 0.02 0.01 0.01 0.01 0.01 0.01 0.01 0.01 0.00 0.00 0.00 0.01 0.01 0.01 0.01 0.01 0.00 0.00 0.00 0.01 0.02 0.02 0.02 0.02 0.02 0.02 0.02 0.03 0.03 0.03 0.03 0.03 0.02 0.02 0.01 0.01 0.01 0.01 0.01 0.02 0.01 0.01 0.00 0.01 0.01
0.02 0.03 0.04 0.03 0.02 0.01 0.01 0.01 0.01 0.01 0.01 0.01 0.01 0.01 0.01 0.01 0.01 0.01 0.01 0.01 0.00 0.00 0.01 0.02 0.03 0.02 0.02 0.02 0.03 0.03 0.03 0.02 0.03 0.03 0.02 0.02 0.01 0.01 0.01 0.01 0.01 0.01 0.02 0.02 0.01 0.01 0.00 0.00 0.01
0.03 0.03 0.03 0.02 0.01 0.01 0.01 0.01 0.02 0.02 0.02 0.01 0.01 0.01 0.01 0.01 0.01 0.01 0.02 0.02 0.01 0.01 0.01 0.02 0.02 0.02 0.02 0.02 0.02 0.02 0.03 0.02 0.02 0.02 0.01 0.01 0.01 0.01 0.01 0.01 0.01 0.01 0.01 0.02 0.01 0.01 0.01 0.00 0.00
0.02 0.03 0.03 0.01 0.01 0.01 0.01 0.01 0.02 0.04 0.03 0.02 0.01 0.02 0.02 0.02 0.03 0.03 0.02 0.03 0.05 0.03 0.02 0.02 0.02 0.02 0.02 0.02 0.01 0.01 0.02 0.02 0.02 0.01 0.01 0.01 0.01 0.01 0.00 0.00 0.00 0.01 0.01 0.01 0.00 0.01 0.01 0.01 0.00
0.01 0.03 0.02 0.01 0.01 0.02 0.01 0.01 0.02 0.02 0.04 0.03 0.02 0.02 0.02 0.02 0.04 0.04 0.03 0.03 0.04 0.05 0.04 0.03 0.03 0.02 0.02 0.02 0.02 0.01 0.01 0.01 0.01 0.01 0.00 0.01 0.01 0.01 0.01 0.00 0.00 0.00 0.00 0.00 0.00 0.00 0.00 0.01 0.00
0.01 0.02 0.02 0.01 0.01 0.01 0.01 0.02 0.02 0.02 0.04 0.04 0.02 0.02 0.02 0.02 0.04 0.05 0.04 0.03 0.03 0.03 0.03 0.03 0.02 0.02 0.02 0.02 0.02 0.02 0.02 0.01 0.01 0.00 0.00 0.00 0.00 0.01 0.01 0.01 0.00 0.00 0.00 0.00 0.00 0.00 0.00 0.00 0.01
0.01 0.01 0.01 0.01 0.01 0.01 0.01 0.02 0.04 0.04 0.04 0.04 0.03 0.02 0.02 0.03 0.04 0.05 0.05 0.03 0.03 0.02 0.02 0.03 0.03 0.02 0.02 0.02 0.02 0.02 0.02 0.02 0.01 0.01 0.00 0.00 0.00 0.00 0.00 0.01 0.01 0.00 0.00 0.00 0.00 0.00 0.00 0.00 0.00
0.02 0.02 0.01 0.01 0.01 0.02 0.02 0.02 0.05 0.07 0.04 0.03 0.03 0.03 0.04 0.05 0.05 0.05 0.05 0.05 0.04 0.03 0.02 0.02 0.03 0.03 0.02 0.02 0.02 0.02 0.02 0.02 0.02 0.01 0.01 0.00 0.00 0.00 0.00 0.00 0.00 0.00 0.00 0.00 0.00 0.00 0.01 0.00 0.01
0.02 0.03 0.02 0.02 0.02 0.03 0.03 0.03 0.04 0.05 0.05 0.03 0.03 0.05 0.06 0.07 0.07 0.06 0.06 0.05 0.04 0.03 0.03 0.03 0.02 0.02 0.03 0.03 0.03 0.02 0.03 0.02 0.02 0.02 0.01 0.00 0.00 0.00 0.00 0.00 0.00 0.00 0.00 0.00 0.00 0.00 0.01 0.01 0.01
0.02 0.02 0.02 0.03 0.04 0.04 0.05 0.04 0.04 0.04 0.04 0.04 0.04 0.05 0.09 0.10 0.11 0.09 0.08 0.07 0.04 0.03 0.03 0.03 0.02 0.01 0.02 0.03 0.04 0.04 0.03 0.03 0.03 0.01 0.01 0.00 0.00 0.00 0.00 0.00 0.00 0.00 0.00 0.00 0.00 0.00 0.00 0.00 0.01
0.03 0.03 0.03 0.04 0.06 0.05 0.05 0.04 0.04 0.04 0.03 0.02 0.03 0.04 0.08 0.11 0.11 0.12 0.11 0.08 0.06 0.03 0.03 0.02 0.02 0.02 0.01 0.02 0.04 0.05 0.06 0.05 0.04 0.02 0.01 0.01 0.01 0.01 0.01 0.01 0.00 0.00 0.00 0.00 0.00 0.00 0.00 0.00 0.01
0.06 0.06 0.06 0.06 0.05 0.05 0.05 0.05 0.04 0.04 0.03 0.03 0.02 0.03 0.05 0.09 0.12 0.13 0.13 0.11 0.08 0.05 0.03 0.02 0.02 0.02 0.02 0.02 0.02 0.04 0.05 0.06 0.05 0.04 0.03 0.03 0.02 0.02 0.01 0.01 0.00 0.00 0.00 0.00 0.00 0.00 0.00 0.00 0.01
0.06 0.06 0.04 0.04 0.05 0.05 0.04 0.04 0.05 0.04 0.03 0.03 0.02 0.02 0.03 0.05 0.08 0.09 0.10 0.10 0.09 0.06 0.05 0.03 0.03 0.03 0.04 0.02 0.02 0.02 0.04 0.06 0.06 0.06 0.04 0.03 0.02 0.01 0.01 0.01 0.01 0.00 0.00 0.00 0.00 0.00 0.00 0.00 0.00
0.04 0.04 0.03 0.04 0.05 0.06 0.05 0.04 0.04 0.04 0.03 0.03 0.03 0.02 0.02 0.03 0.04 0.06 0.07 0.07 0.07 0.07 0.06 0.05 0.04 0.03 0.03 0.04 0.04 0.04 0.04 0.05 0.06 0.06 0.05 0.03 0.02 0.02 0.02 0.02 0.02 0.01 0.00 0.00 0.00 0.00 0.00 0.00 0.01
0.02 0.02 0.02 0.03 0.04 0.05 0.05 0.04 0.03 0.04 0.04 0.03 0.03 0.02 0.03 0.03 0.04 0.04 0.05 0.05 0.03 0.04 0.05 0.05 0.05 0.04 0.03 0.03 0.04 0.06 0.07 0.07 0.07 0.05 0.04 0.03 0.03 0.02 0.02 0.02 0.03 0.02 0.02 0.01 0.01 0.01 0.01 0.01 0.01
0.03 0.02 0.02 0.02 0.03 0.04 0.04 0.04 0.03 0.02 0.03 0.02 0.02 0.02 0.02 0.02 0.02 0.03 0.04 0.04 0.03 0.02 0.03 0.03 0.04 0.04 0.04 0.04 0.04 0.04 0.05 0.06 0.07 0.07 0.07 0.05 0.03 0.02 0.02 0.03 0.03 0.03 0.02 0.02 0.01 0.01 0.01 0.02 0.02
0.04 0.03 0.02 0.02 0.03 0.04 0.05 0.05 0.04 0.03 0.02 0.01 0.01 0.02 0.02 0.02 0.02 0.03 0.04 0.04 0.04 0.03 0.02 0.02 0.01 0.02 0.03 0.03 0.03 0.03 0.03 0.05 0.07 0.09 0.09 0.08 0.07 0.05 0.04 0.03 0.03 0.03 0.03 0.03 0.03 0.03 0.03 0.03 0.03
0.03 0.03 0.01 0.01 0.02 0.04 0.05 0.06 0.05 0.03 0.02 0.02 0.01 0.02 0.03 0.02 0.02 0.02 0.02 0.02 0.02 0.03 0.02 0.01 0.01 0.02 0.03 0.03 0.03 0.02 0.03 0.04 0.05 0.08 0.10 0.09 0.07 0.05 0.05 0.04 0.04 0.04 0.04 0.04 0.04 0.04 0.03 0.03 0.02
0.02 0.01 0.01 0.02 0.02 0.02 0.03 0.03 0.03 0.03 0.03 0.02 0.01 0.01 0.02 0.02 0.02 0.01 0.01 0.01 0.01 0.01 0.01 0.01 0.01 0.01 0.02 0.03 0.03 0.03 0.03 0.04 0.04 0.04 0.06 0.08 0.09 0.08 0.06 0.06 0.05 0.04 0.04 0.04 0.04 0.04 0.04 0.03 0.03
0.01 0.03 0.04 0.04 0.04 0.03 0.01 0.01 0.01 0.01 0.01 0.01 0.01 0.00 0.01 0.01 0.01 0.01 0.01 0.00 0.00 0.00 0.01 0.01 0.02 0.01 0.02 0.03 0.04 0.03 0.02 0.03 0.03 0.03 0.04 0.05 0.06 0.07 0.09 0.08 0.07 0.05 0.04 0.04 0.04 0.04 0.03 0.03 0.03
0.03 0.04 0.07 0.08 0.07 0.05 0.01 0.00 0.00 0.00 0.00 0.00 0.00 0.00 0.00 0.00 0.01 0.00 0.00 0.00 0.00 0.00 0.00 0.01 0.02 0.02 0.02 0.03 0.05 0.05 0.03 0.03 0.02 0.02 0.02 0.03 0.03 0.05 0.06 0.06 0.05 0.05 0.04 0.03 0.03 0.03 0.03 0.03 0.04
0.04 0.03 0.04 0.04 0.03 0.02 0.01 0.01 0.00 0.00 0.00 0.00 0.00 0.00 0.00 0.00 0.00 0.00 0.00 0.00 0.00 0.00 0.00 0.00 0.01 0.02 0.03 0.04 0.06 0.07 0.05 0.03 0.02 0.02 0.02 0.03 0.04 0.04 0.04 0.04 0.05 0.04 0.03 0.03 0.03 0.03 0.04 0.04 0.05
0.04 0.03 0.02 0.02 0.01 0.00 0.01 0.01 0.01 0.00 0.00 0.00 0.00 0.00 0.00 0.00 0.00 0.00 0.00 0.00 0.00 0.00 0.00 0.00 0.01 0.01 0.02 0.04 0.07 0.09 0.08 0.05 0.04 0.04 0.04 0.03 0.04 0.04 0.04 0.03 0.03 0.04 0.04 0.04 0.04 0.04 0.04 0.05 0.05
0.02 0.02 0.01 0.02 0.01 0.00 0.00 0.01 0.01 0.01 0.00 0.00 0.00 0.00 0.00 0.00 0.00 0.00 0.00 0.00 0.00 0.00 0.00 0.00 0.01 0.02 0.03 0.05 0.06 0.08 0.08 0.06 0.04 0.04 0.05 0.05 0.04 0.05 0.05 0.05 0.04 0.04 0.03 0.03 0.03 0.03 0.03 0.04 0.04
0.01 0.01 0.01 0.01 0.01 0.00 0.00 0.01 0.01 0.01 0.00 0.00 0.00 0.00 0.00 0.00 0.00 0.00 0.00 0.00 0.00 0.01 0.01 0.01 0.01 0.01 0.02 0.04 0.06 0.06 0.06 0.06 0.04 0.02 0.02 0.03 0.04 0.04 0.05 0.05 0.03 0.02 0.02 0.02 0.02 0.02 0.03 0.03 0.03
0.01 0.01 0.01 0.00 0.00 0.00 0.00 0.00 0.00 0.01 0.00 0.00 0.00 0.01 0.01 0.00 0.00 0.01 0.01 0.01 0.01 0.01 0.01 0.01 0.01 0.01 0.02 0.02 0.03 0.03 0.03 0.03 0.03 0.02 0.02 0.02 0.03 0.03 0.03 0.03 0.02 0.01 0.01 0.01 0.02 0.02 0.02 0.02 0.02
MSLP
1016.29 1016.52 1017.23 1018.43 1020.05 1021.96 1023.94 1025.80 1027.35 1028.48 1029.19 1029.58 1029.80 1030.00 1030.33 1030.85 1031.53 1032.29 1032.96 1033.39 1033.47 1033.16 1032.50 1031.60 1030.59 1029.63 1028.83 1028.22 1027.80 1027.50 1027.25 1026.96 1026.61 1026.18 1025.71 1025.25 1024.85 1024.53 1024.29 1024.11 1023.95 1023.77 1023.55 1023.30 1023.03 1022.77 1022.55 1022.38 1022.23
1016.73 1017.23 1018.21 1019.63 1021.42 1023.38 1025.33 1027.07 1028.46 1029.41 1029.98 1030.27 1030.46 1030.69 1031.08 1031.68 1032.44 1033.24 1033.91 1034.31 1034.33 1033.96 1033.25 1032.31 1031.29 1030.34 1029.57 1029.00 1028.61 1028.35 1028.13 1027.88 1027.56 1027.17 1026.75 1026.33 1025.96 1025.64 1025.39 1025.17 1024.95 1024.69 1024.39 1024.06 1023.72 1023.41 1023.14 1022.93 1022.75
1017.22 1017.99 1019.21 1020.82 1022.70 1024.67 1026.54 1028.14 1029.35 1030.13 1030.57 1030.80 1030.98 1031.25 1031.72 1032.39 1033.20 1034.01 1034.67 1035.03 1035.00 1034.59 1033.84 1032.90 1031.92 1031.02 1030.30 1029.78 1029.44 1029.22 1029.03 1028.80 1028.52 1028.17 1027.78 1027.39 1027.04 1026.74 1026.46 1026.20 1025.91 1025.58 1025.20 1024.79 1024.39 1024.03 1023.72 1023.47 1023.25
1017.77 1018.77 1020.19 1021.92 1023.84 1025.77 1027.52 1028.95 1030.00 1030.65 1031.00 1031.20 1031.39 1031.72 1032.24 1032.96 1033.78 1034.58 1035.19 1035.49 1035.42 1034.98 1034.26 1033.37 1032.46 1031.65 1031.01 1030.57 1030.29 1030.09 1029.92 1029.71 1029.43 1029.09 1028.73 1028.36 1028.02 1027.72 1027.43 1027.13 1026.79 1026.40 1025.96 1025.49 1025.04 1024.63 1024.29 1024.01 1023.75
1018.39 1019.58 1021.12 1022.91 1024.80 1026.63 1028.24 1029.52 1030.42 1030.98 1031.30 1031.51 1031.75 1032.13 1032.70 1033.42 1034.22 1034.95 1035.48 1035.71 1035.60 1035.16 1034.49 1033.70 1032.91 1032.24 1031.73 1031.38 1031.15 1030.98 1030.81 1030.58 1030.28 1029.93 1029.56 1029.19 1028.86 1028.55 1028.25 1027.93 1027.56 1027.13 1026.65 1026.16 1025.68 1025.24 1024.87 1024.56 1024.27
1019.15 1020.46 1022.05 1023.82 1025.61 1027.29 1028.74 1029.87 1030.67 1031.18 1031.51 1031.78 1032.10 1032.54 1033.13 1033.83 1034.56 1035.18 1035.60 1035.74 1035.59 1035.18 1034.59 1033.93 1033.31 1032.81 1032.44 1032.19 1032.02 1031.86 1031.66 1031.39 1031.05 1030.66 1030.26 1029.88 1029.54 1029.22 1028.92 1028.60 1028.22 1027.78 1027.30 1026.79 1026.30 1025.85 1025.46 1025.13 1024.81
1020.10 1021.46 1023.03 1024.69 1026.32 1027.82 1029.09 1030.08 1030.82 1031.33 1031.72 1032.08 1032.49 1032.99 1033.60 1034.25 1034.86 1035.35 1035.64 1035.68 1035.49 1035.11 1034.63 1034.12 1033.69 1033.36 1033.13 1032.99 1032.86 1032.71 1032.47 1032.15 1031.75 1031.30 1030.86 1030.46 1030.10 1029.79 1029.49 1029.17 1028.80 1028.38 1027.90 1027.40 1026.91 1026.46 1026.06 1025.71 1025.37
1021.28 1022.63 1024.10 1025.59 1027.02 1028.30 1029.38 1030.25 1030.93 1031.48 1031.95 1032.42 1032.93 1033.50 1034.10 1034.68 1035.18 1035.52 1035.67 1035.61 1035.39 1035.05 1034.66 1034.32 1034.05 1033.88 1033.79 1033.73 1033.64 1033.48 1033.20 1032.82 1032.37 1031.88 1031.40 1030.97 1030.61 1030.29 1030.00 1029.69 1029.34 1028.93 1028.47 1027.99 1027.50 1027.05 1026.63 1026.26 1025.91
1022.67 1023.96 1025.28 1026.57 1027.75 1028.79 1029.68 1030.44 1031.08 1031.66 1032.23 1032.81 1033.42 1034.04 1034.62 1035.13 1035.51 1035.71 1035.74 1035.60 1035.34 1035.04 1034.75 1034.54 1034.42 1034.38 1034.39 1034.39 1034.32 1034.14 1033.83 1033.41 1032.92 1032.40 1031.91 1031.47 1031.11 1030.80 1030.51 1030.21 1029.87 1029.47 1029.02 1028.54 1028.05 1027.59 1027.16 1026.77 1026.39
1024.18 1025.38 1026.54 1027.60 1028.53 1029.34 1030.05 1030.68 1031.29 1031.90 1032.54 1033.21 1033.89 1034.54 1035.11 1035.56 1035.83 1035.92 1035.85 1035.65 1035.38 1035.12 1034.91 1034.80 1034.78 1034.82 1034.89 1034.91 1034.85 1034.65 1034.33 1033.90 1033.40 1032.89 1032.41 1031.99 1031.64 1031.34 1031.05 1030.75 1030.41 1030.00 1029.55 1029.06 1028.55 1028.07 1027.61 1027.19 1026.79
1025.68 1026.79 1027.78 1028.63 1029.34 1029.93 1030.47 1031.00 1031.55 1032.17 1032.86 1033.58 1034.30 1034.95 1035.50 1035.88 1036.08 1036.09 1035.96 1035.74 1035.49 1035.27 1035.12 1035.07 1035.11 1035.19 1035.26 1035.28 1035.20 1035.00 1034.68 1034.26 1033.80 1033.33 1032.90 1032.53 1032.20 1031.92 1031.63 1031.32 1030.95 1030.52 1030.04 1029.53 1029.00 1028.48 1027.99 1027.53 1027.11
1027.02 1028.05 1028.90 1029.57 1030.09 1030.52 1030.92 1031.35 1031.85 1032.46 1033.14 1033.86 1034.57 1035.20 1035.70 1036.03 1036.18 1036.17 1036.03 1035.83 1035.62 1035.45 1035.35 1035.34 1035.39 1035.46 1035.51 1035.49 1035.38 1035.18 1034.88 1034.51 1034.12 1033.73 1033.38 1033.07 1032.79 1032.51 1032.22 1031.88 1031.48 1031.02 1030.50 1029.95 1029.39 1028.83 1028.30 1027.80 1027.35
1028.08 1029.03 1029.78 1030.32 1030.72 1031.04 1031.34 1031.70 1032.15 1032.71 1033.35 1034.02 1034.68 1035.25 1035.69 1035.97 1036.10 1036.09 1035.99 1035.84 1035.70 1035.60 1035.55 1035.56 1035.59 1035.62 1035.61 1035.55 1035.41 1035.20 1034.94 1034.65 1034.35 1034.07 1033.82 1033.58 1033.35 1033.09 1032.79 1032.42 1031.98 1031.48 1030.93 1030.34 1029.74 1029.15 1028.59 1028.05 1027.57
1028.77 1029.67 1030.34 1030.83 1031.17 1031.43 1031.69 1032.01 1032.41 1032.91 1033.47 1034.05 1034.60 1035.07 1035.44 1035.67 1035.79 1035.82 1035.79 1035.74 1035.69 1035.67 1035.67 1035.69 1035.70 1035.68 1035.61 1035.49 1035.32 1035.12 1034.91 1034.70 1034.51 1034.34 1034.19 1034.03 1033.84 1033.60 1033.29 1032.89 1032.42 1031.89 1031.31 1030.70 1030.09 1029.48 1028.89 1028.33 1027.81
1029.12 1029.97 1030.61 1031.08 1031.41 1031.68 1031.94 1032.24 1032.61 1033.04 1033.49 1033.95 1034.37 1034.72 1034.99 1035.17 1035.29 1035.36 1035.42 1035.48 1035.55 1035.62 1035.68 1035.72 1035.70 1035.64 1035.52 1035.35 1035.17 1034.98 1034.82 1034.69 1034.61 1034.54 1034.48 1034.39 1034.24 1034.01 1033.69 1033.28 1032.79 1032.24 1031.66 1031.05 1030.44 1029.83 1029.23 1028.66 1028.12
1029.25 1030.04 1030.65 1031.12 1031.48 1031.79 1032.08 1032.39 1032.73 1033.08 1033.43 1033.75 1034.02 1034.23 1034.39 1034.52 1034.63 1034.75 1034.89 1035.06 1035.24 1035.41 1035.55 1035.61 1035.60 1035.51 1035.36 1035.18 1034.99 1034.83 1034.72 1034.67 1034.66 1034.68 1034.69 1034.65 1034.53 1034.31 1033.99 1033.57 1033.08 1032.54 1031.98 1031.40 1030.81 1030.23 1029.64 1029.07 1028.51
1029.30 1030.00 1030.57 1031.04 1031.43 1031.78 1032.12 1032.44 1032.76 1033.04 1033.28 1033.46 1033.58 1033.66 1033.71 1033.77 1033.86 1034.02 1034.24 1034.50 1034.79 1035.05 1035.26 1035.37 1035.39 1035.31 1035.16 1034.98 1034.81 1034.68 1034.62 1034.62 1034.68 1034.76 1034.81 1034.79 1034.69 1034.48 1034.17 1033.78 1033.31 1032.81 1032.28 1031.75 1031.21 1030.67 1030.11 1029.55 1028.99
1029.42 1030.00 1030.49 1030.93 1031.33 1031.70 1032.06 1032.39 1032.67 1032.89 1033.02 1033.08 1033.07 1033.01 1032.96 1032.96 1033.04 1033.21 1033.48 1033.82 1034.19 1034.53 1034.81 1034.99 1035.05 1035.01 1034.89 1034.75 1034.61 1034.53 1034.51 1034.57 1034.66 1034.76 1034.83 1034.84 1034.75 1034.56 1034.27 1033.91 1033.49 1033.04 1032.58 1032.12 1031.64 1031.14 1030.62 1030.08 1029.52
1029.71 1030.13 1030.51 1030.87 1031.22 1031.57 1031.90 1032.20 1032.43 1032.58 1032.62 1032.57 1032.45 1032.31 1032.18 1032.12 1032.18 1032.36 1032.66 1033.04 1033.47 1033.87 1034.22 1034.45 1034.58 1034.60 1034.54 1034.46 1034.38 1034.35 1034.37 1034.46 1034.57 1034.69 1034.76 1034.77 1034.70 1034.54 1034.29 1033.98 1033.64 1033.27 1032.89 1032.49 1032.08 1031.63 1031.15 1030.62 1030.08
1030.21 1030.45 1030.67 1030.89 1031.14 1031.39 1031.64 1031.86 1032.02 1032.08 1032.04 1031.91 1031.72 1031.51 1031.34 1031.26 1031.30 1031.48 1031.79 1032.19 1032.65 1033.09 1033.48 1033.77 1033.96 1034.06 1034.08 1034.07 1034.07 1034.09 1034.15 1034.26 1034.38 1034.50 1034.58 1034.60 1034.56 1034.44 1034.26 1034.03 1033.77 1033.48 1033.18 1032.86 1032.50 1032.10 1031.65 1031.14 1030.60
1030.89 1030.92 1030.95 1030.99 1031.06 1031.16 1031.27 1031.36 1031.40 1031.37 1031.25 1031.07 1030.84 1030.62 1030.44 1030.36 1030.41 1030.59 1030.90 1031.31 1031.76 1032.22 1032.63 1032.96 1033.21 1033.38 1033.48 1033.55 1033.62 1033.70 1033.80 1033.92 1034.06 1034.18 1034.27 1034.32 1034.32 1034.26 1034.17 1034.04 1033.88 1033.69 1033.47 1033.21 1032.90 1032.52 1032.09 1031.60 1031.08
1031.63 1031.47 1031.30 1031.13 1030.99 1030.88 1030.79 1030.70 1030.60 1030.45 1030.27 1030.05 1029.82 1029.62 1029.48 1029.44 1029.52 1029.72 1030.03 1030.42 1030.85 1031.30 1031.71 1032.06 1032.35 1032.57 1032.75 1032.89 1033.02 1033.15 1033.28 1033.42 1033.57 1033.71 1033.82 1033.91 1033.98 1034.02 1034.03 1034.01 1033.96 1033.86 1033.72 1033.51 1033.23 1032.87 1032.45 1031.98 1031.48
1032.32 1032.01 1031.64 1031.26 1030.90 1030.55 1030.24 1029.95 1029.68 1029.41 1029.15 1028.91 1028.71 1028.56 1028.49 1028.52 1028.64 1028.87 1029.19 1029.56 1029.97 1030.38 1030.77 1031.12 1031.42 1031.68 1031.90 1032.10 1032.27 1032.44 1032.61 1032.77 1032.93 1033.09 1033.25 1033.41 1033.56 1033.70 1033.83 1033.93 1033.98 1033.98 1033.90 1033.73 1033.47 1033.13 1032.71 1032.26 1031.78
1032.87 1032.46 1031.95 1031.39 1030.81 1030.24 1029.69 1029.19 1028.74 1028.34 1028.02 1027.76 1027.59 1027.51 1027.53 1027.64 1027.84 1028.11 1028.43 1028.79 1029.16 1029.53 1029.87 1030.20 1030.49 1030.76 1031.00 1031.22 1031.43 1031.62 1031.81 1032.00 1032.18 1032.38 1032.59 1032.82 1033.06 1033.32 1033.56 1033.78 1033.93 1034.01 1033.98 1033.84 1033.60 1033.26 1032.86 1032.42 1031.98
1033.26 1032.80 1032.20 1031.50 1030.75 1029.98 1029.23 1028.53 1027.90 1027.38 1026.98 1026.71 1026.57 1026.56 1026.67 1026.87 1027.14 1027.45 1027.79 1028.13 1028.46 1028.77 1029.07 1029.34 1029.61 1029.86 1030.10 1030.33 1030.55 1030.76 1030.96 1031.17 1031.38 1031.62 1031.89 1032.19 1032.53 1032.89 1033.24 1033.55 1033.79 1033.93 1033.94 1033.83 1033.59 1033.26 1032.87 1032.46 1032.06
1033.50 1033.04 1032.41 1031.64 1030.78 1029.86 1028.93 1028.06 1027.28 1026.64 1026.17 1025.87 1025.75 1025.80 1025.97 1026.25 1026.58 1026.93 1027.28 1027.60 1027.89 1028.15 1028.38 1028.60 1028.82 1029.03 1029.26 1029.48 1029.70 1029.92 1030.14 1030.36 1030.61 1030.88 1031.21 1031.58 1032.00 1032.44 1032.87 1033.26 1033.56 1033.74 1033.78 1033.68 1033.45 1033.13 1032.76 1032.39 1032.04
1033.65 1033.24 1032.62 1031.83 1030.90 1029.88 1028.83 1027.83 1026.92 1026.18 1025.64 1025.31 1025.20 1025.27 1025.49 1025.81 1026.18 1026.56 1026.90 1027.20 1027.44 1027.64 1027.82 1027.98 1028.14 1028.32 1028.52 1028.73 1028.95 1029.17 1029.40 1029.65 1029.92 1030.24 1030.61 1031.03 1031.51 1032.00 1032.49 1032.92 1033.25 1033.45 1033.50 1033.41 1033.19 1032.88 1032.54 1032.20 1031.90
1033.77 1033.41 1032.84 1032.05 1031.10 1030.03 1028.91 1027.82 1026.83 1026.01 1025.40 1025.03 1024.90 1024.97 1025.21 1025.54 1025.92 1026.30 1026.63 1026.89 1027.09 1027.24 1027.36 1027.46 1027.59 1027.73 1027.90 1028.10 1028.32 1028.55 1028.80 1029.07 1029.37 1029.72 1030.13 1030.59 1031.09 1031.61 1032.12 1032.56 1032.89 1033.09 1033.14 1033.04 1032.83 1032.55 1032.23 1031.93 1031.67
1033.89 1033.58 1033.03 1032.27 1031.32 1030.24 1029.09 1027.95 1026.90 1026.03 1025.37 1024.97 1024.80 1024.85 1025.07 1025.39 1025.75 1026.10 1026.40 1026.63 1026.79 1026.89 1026.96 1027.03 1027.11 1027.23 1027.39 1027.59 1027.81 1028.06 1028.34 1028.64 1028.98 1029.36 1029.79 1030.26 1030.78 1031.29 1031.79 1032.21 1032.52 1032.70 1032.74 1032.64 1032.43 1032.16 1031.87 1031.61 1031.39
1034.01 1033.68 1033.14 1032.38 1031.44 1030.35 1029.20 1028.05 1026.99 1026.09 1025.41 1024.98 1024.78 1024.80 1024.98 1025.26 1025.59 1025.90 1026.16 1026.35 1026.47 1026.53 1026.57 1026.61 1026.68 1026.79 1026.95 1027.15 1027.40 1027.68 1027.98 1028.32 1028.69 1029.10 1029.55 1030.04 1030.54 1031.04 1031.50 1031.89 1032.17 1032.32 1032.34 1032.24 1032.04 1031.79 1031.53 1031.29 1031.10
Thickness
5692 5697 5701 5703 5696 5686 5675 5673 5677 5674 5674 5676 5678 5679 5678 5675 5673 5665 5662 5665 5665 5665 5666 5665 5666 5667 5667 5667 5668 5668 5668 5668 5668 5668 5667 5667 5666 5666 5666 5666 5666 5666 5666 5666 5666 5666 5666 5665 5665
5689 5694 5696 5694 5685 5675 5669 5670 5668 5668 5670 5671 5672 5673 5671 5666 5663 5659 5658 5659 5661 5661 5662 5662 5662 5663 5663 5663 5664 5664 5664 5664 5664 5663 5663 5663 5662 5662 5662 5662 5662 5662 5662 5662 5662 5662 5661 5661 5661
5686 5690 5686 5680 5672 5671 5666 5663 5662 5662 5665 5667 5665 5664 5662 5656 5654 5653 5653 5655 5656 5657 5657 5657 5658 5658 5659 5659 5659 5659 5659 5659 5659 5659 5659 5658 5658 5658 5658 5658 5657 5657 5657 5658 5658 5657 5657 5657 5657
5682 5681 5676 5668 5658 5656 5659 5657 5656 5658 5659 5660 5661 5656 5651 5646 5646 5647 5648 5650 5652 5652 5652 5652 5653 5653 5654 5654 5654 5654 5654 5654 5654 5654 5654 5653 5653 5653 5653 5653 5653 5652 5652 5653 5653 5652 5652 5652 5652
5677 5672 5661 5653 5649 5647 5648 5649 5652 5653 5652 5653 5655 5651 5645 5640 5641 5642 5643 5645 5646 5646 5646 5646 5647 5648 5648 5648 5648 5648 5649 5649 5649 5649 5648 5648 5648 5648 5648 5648 5648 5648 5647 5647 5647 5647 5647 5647 5647
5666 5664 5653 5646 5642 5639 5639 5640 5645 5645 5644 5645 5647 5645 5637 5633 5635 5636 5637 5639 5640 5640 5640 5640 5641 5641 5642 5642 5642 5642 5643 5643 5643 5642 5642 5642 5642 5642 5642 5642 5642 5642 5642 5642 5642 5641 5641 5641 5641
5656 5652 5645 5641 5636 5633 5631 5633 5636 5637 5636 5635 5637 5637 5632 5629 5628 5629 5631 5632 5633 5634 5634 5634 5635 5635 5636 5636 5636 5637 5637 5637 5637 5636 5636 5636 5636 5636 5636 5636 5636 5636 5636 5636 5635 5635 5635 5635 5635
5650 5645 5633 5632 5631 5628 5625 5625 5627 5628 5626 5626 5628 5629 5625 5622 5622 5623 5624 5625 5626 5627 5627 5628 5629 5629 5630 5630 5630 5630 5630 5630 5630 5630 5630 5630 5630 5629 5629 5629 5630 5630 5630 5629 5629 5628 5628 5628 5628
5642 5636 5627 5625 5626 5622 5619 5618 5617 5618 5618 5616 5615 5616 5615 5614 5615 5616 5618 5619 5619 5620 5620 5621 5623 5623 5624 5624 5624 5624 5624 5624 5624 5624 5623 5624 5624 5624 5623 5622 5622 5623 5623 5622 5622 5622 5621 5621 5621
5631 5626 5618 5618 5621 5617 5613 5612 5611 5612 5612 5608 5606 5605 5605 5606 5608 5609 5612 5613 5613 5613 5613 5614 5616 5617 5617 5618 5618 5618 5618 5618 5618 5618 5617 5617 5617 5617 5616 5615 5615 5616 5616 5615 5615 5614 5614 5615 5615
5615 5613 5609 5607 5609 5609 5606 5603 5603 5606 5604 5602 5600 5597 5597 5598 5601 5602 5604 5605 5605 5606 5606 5607 5608 5609 5610 5611 5612 5612 5612 5612 5612 5612 5611 5611 5611 5611 5610 5610 5610 5609 5609 5609 5608 5608 5608 5607 5607
5603 5598 5600 5599 5598 5598 5598 5596 5595 5593 5593 5591 5591 5589 5590 5591 5593 5594 5597 5597 5597 5598 5598 5599 5601 5602 5603 5604 5605 5605 5606 5606 5606 5605 5605 5605 5605 5604 5604 5603 5603 5602 5602 5602 5602 5601 5600 5599 5598
5596 5590 5588 5588 5589 5588 5588 5588 5586 5582 5581 5582 5582 5582 5582 5584 5585 5587 5588 5589 5589 5589 5591 5592 5593 5594 5596 5597 5598 5599 5599 5599 5599 5598 5598 5598 5598 5598 5597 5596 5595 5595 5594 5594 5594 5593 5592 5591 5589
5588 5586 5583 5582 5583 5581 5582 5579 5579 5576 5575 5576 5575 5576 5576 5576 5577 5580 5581 5581 5582 5582 5583 5584 5586 5587 5588 5589 5591 5592 5592 5592 5591 5591 5591 5590 5590 5590 5589 5588 5587 5587 5586 5586 5585 5585 5584 5582 5580
5584 5583 5580 5576 5576 5575 5579 5577 5573 5570 5570 5571 5570 5570 5570 5569 5570 5571 5572 5573 5574 5575 5576 5577 5578 5578 5580 5581 5583 5584 5584 5584 5583 5583 5583 5582 5582 5582 5581 5581 5580 5579 5578 5577 5577 5576 5575 5573 5571
5583 5585 5583 5572 5571 5571 5577 5578 5569 5565 5566 5568 5567 5566 5565 5564 5565 5566 5566 5565 5567 5569 5569 5569 5570 5570 5571 5573 5574 5575 5576 5576 5575 5575 5575 5574 5574 5573 5573 5572 5571 5570 5569 5568 5568 5566 5565 5563 5561
5583 5583 5579 5572 5566 5568 5572 5572 5565 5561 5563 5564 5564 5562 5561 5561 5560 5560 5560 5559 5560 5562 5562 5562 5562 5562 5564 5565 5566 5567 5567 5568 5567 5566 5566 5565 5565 5565 5565 5563 5562 5561 5560 5559 5558 5557 5555 5554 5552
5579 5578 5572 5569 5562 5563 5566 5566 5562 5559 5558 5560 5560 5559 5557 5558 5557 5556 5554 5553 5554 5555 5555 5555 5555 5555 5556 5557 5558 5559 5559 5559 5559 5559 5558 5557 5557 5556 5555 5554 5553 5552 5551 5550 5549 5547 5545 5543 5541
5572 5571 5569 5561 5554 5558 5562 5561 5560 5557 5555 5557 5556 5555 5554 5554 5553 5550 5549 5549 5549 5548 5549 5549 5549 5548 5549 5549 5550 5550 5551 5550 5550 5550 5549 5549 5548 5547 5546 5545 5544 5543 5542 5540 5539 5538 5536 5533 5530
5566 5565 5561 5555 5551 5554 5556 5558 5559 5554 5553 5554 5553 5552 5552 5551 5549 5546 5545 5545 5544 5543 5543 5543 5542 5541 5541 5541 5541 5541 5541 5542 5542 5541 5540 5540 5539 5539 5538 5536 5535 5534 5533 5531 5529 5527 5526 5524 5520
5557 5560 5556 5552 5549 5550 5555 5567 5561 5556 5551 5550 5549 5548 5547 5546 5545 5543 5541 5540 5539 5538 5537 5536 5536 5535 5534 5533 5533 5533 5532 5533 5534 5533 5533 5531 5530 5530 5529 5527 5526 5525 5524 5522 5520 5517 5515 5514 5510
5556 5544 5544 5545 5555 5556 5551 5566 5568 5557 5553 5552 5550 5548 5546 5543 5540 5538 5536 5534 5534 5532 5531 5531 5530 5529 5528 5526 5526 5526 5527 5528 5528 5526 5524 5523 5521 5520 5519 5518 5517 5516 5514 5512 5509 5506 5504 5503 5500
5544 5538 5540 5543 5546 5548 5547 5554 5570 5555 5557 5557 5553 5548 5546 5541 5537 5534 5531 5529 5528 5527 5526 5525 5524 5523 5522 5520 5519 5519 5519 5519 5519 5517 5516 5515 5513 5511 5509 5508 5507 5506 5504 5501 5499 5496 5493 5491 5489
5534 5536 5537 5539 5546 5548 5543 5549 5566 5562 5560 5558 5553 5546 5542 5538 5534 5531 5528 5525 5524 5522 5520 5519 5518 5517 5515 5514 5513 5512 5512 5512 5512 5511 5509 5507 5505 5503 5501 5499 5497 5495 5493 5490 5488 5485 5482 5479 5475
5536 5544 5549 5551 5549 5552 5533 5540 5560 5562 5555 5551 5548 5544 5540 5535 5531 5528 5525 5523 5520 5518 5516 5514 5513 5511 5510 5508 5507 5506 5506 5506 5506 5504 5502 5501 5498 5496 5493 5490 5488 5485 5482 5479 5476 5473 5470 5467 5463
5530 5538 5547 5552 5552 5552 5530 5543 5562 5554 5547 5542 5540 5538 5535 5532 5528 5525 5522 5519 5517 5514 5511 5509 5507 5506 5504 5503 5502 5501 5500 5499 5499 5497 5495 5492 5490 5488 5484 5481 5478 5475 5472 5468 5465 5462 5458 5455 5451
5529 5529 5522 5527 5506 5523 5547 5547 5552 5548 5545 5541 5538 5535 5533 5530 5525 5522 5518 5515 5513 5510 5507 5504 5502 5500 5499 5497 5496 5495 5493 5492 5491 5489 5486 5484 5482 5479 5475 5472 5469 5465 5462 5458 5455 5451 5447 5444 5439
5518 5518 5519 5527 5534 5544 5548 5548 5559 5553 5550 5544 5539 5535 5531 5526 5522 5518 5515 5512 5509 5505 5502 5499 5496 5495 5493 5491 5490 5488 5487 5485 5483 5482 5479 5476 5473 5470 5467 5463 5459 5455 5451 5448 5444 5441 5437 5432 5428
5512 5512 5514 5515 5515 5533 5542 5560 5559 5553 5548 5543 5538 5532 5528 5522 5518 5514 5511 5507 5503 5500 5497 5494 5492 5489 5488 5486 5484 5482 5480 5477 5475 5473 5471 5468 5465 5462 5458 5454 5450 5447 5443 5438 5434 5430 5426 5422 5417
5507 5514 5515 5525 5512 5507 5524 5551 5550 5543 5539 5535 5533 5528 5522 5517 5514 5511 5506 5502 5499 5496 5493 5489 5487 5484 5482 5480 5477 5475 5473 5470 5468 5465 5463 5460 5457 5454 5450 5446 5442 5438 5433 5429 5425 5420 5416 5411 5407